Regional Weather Roundup
Issued by NWS Little Rock, AR

Home | Current Version | Previous Version | Graphics & Text | Print | Product List | Glossary On
Versions: 1 2 3 4 5 6 7 8 9 10 11 12 13 14 15 16 17 18 19 20 21 22 23 24 25 26 27 28 29 30 31 32
000
ASUS44 KLZK 230805
RWRLZK

WEATHER ROUNDUP FOR ARKANSAS
NATIONAL WEATHER SERVICE LITTLE ROCK AR
300 AM CDT SUN APR 23 2017

NOTE: "FAIR" INDICATES FEW OR NO CLOUDS BELOW 12,000 FEET WITH NO
SIGNIFICANT WEATHER AND/OR OBSTRUCTIONS TO VISIBILITY.

ARZ001-003-010-029-230900-
NORTHWEST ARKANSAS

CITY           SKY/WX    TMP DP  RH WIND       PRES   REMARKS
FAYETTEVILLE   PTCLDY    44  43  96 VRB3      30.08F
FORT SMITH     MOCLDY    50  44  80 NW7       30.09S
HARRISON       CLOUDY    46  45  96 NW7       30.06S
BENTONVILLE    CLOUDY    46  41  81 N7        30.09S
ROGERS         CLOUDY    45  42  89 NW7       30.09F
SILOAM SPGS    CLOUDY    46  39  76 N8        30.10S
HIGHFILL       CLOUDY    47  43  86 NW10      30.09S
$$

ARZ004-005-016-230900-
NORTH CENTRAL ARKANSAS

CITY           SKY/WX    TMP DP  RH WIND       PRES   REMARKS
BATESVILLE     CLOUDY    48  45  87 W6        30.01S
FLIPPIN        CLOUDY    50  39  66 N6        30.02S
MTN HOME       MOCLDY    46  44  93 N3        30.02F
$$

ARZ040-041-230900-
WEST CENTRAL ARKANSAS

CITY           SKY/WX    TMP DP  RH WIND       PRES   REMARKS
MENA           NOT AVBL
MOUNT IDA      CLOUDY    50  45  83 NW3       30.01F
$$

ARZ009-017-025-026-028-230900-
NORTHEAST ARKANSAS

CITY           SKY/WX    TMP DP  RH WIND       PRES   REMARKS
JONESBORO      CLOUDY    50  46  86 N7        29.95F
WALNUT RIDGE   CLOUDY    50  43  76 N10       29.97F
BLYTHEVILLE    CLOUDY    51  50  96 N12       29.93F
$$

ARZ022-023-033-042-044-230900-
CENTRAL ARKANSAS

CITY           SKY/WX    TMP DP  RH WIND       PRES   REMARKS
LITTLE ROCK    CLOUDY    50  47  89 N10       30.00F
N LITTLE ROCK    N/A     49  46  88 N6        30.01F
JACKSONVILLE   CLOUDY    51  47  83 N6        29.99F
CONWAY           N/A     52  46  82 N10       30.01S
SEARCY         CLOUDY    50  48  93 N8        30.00F
HOT SPRINGS    CLOUDY    51  47  86 VRB5      30.02F
RUSSELLVILLE   CLOUDY    51  45  79 CALM      30.04S
$$

ARZ036-230900-
EAST ARKANSAS

CITY           SKY/WX    TMP DP  RH WIND       PRES   REMARKS
WEST MEMPHIS   LGT RAIN  50  50 100 N12G21    29.91F FOG
$$

ARZ050-053-066-070-073-230900-
SOUTHWEST ARKANSAS

CITY           SKY/WX    TMP DP  RH WIND       PRES   REMARKS
ARKADELPHIA    CLOUDY    52  47  83 N6        30.03S
CAMDEN         CLOUDY    52  46  82 NW5       30.01S
TEXARKANA      CLOUDY    51  46  83 NW8       30.04F
EL DORADO      LGT RAIN  51  50  96 NW7       30.01F
DE QUEEN       MOCLDY    51  47  86 VRB3      30.05R
$$

ARZ056-057-069-230900-
SOUTHEAST ARKANSAS

CITY           SKY/WX    TMP DP  RH WIND       PRES   REMARKS
PINE BLUFF     CLOUDY    51  47  86 N9        29.99F
STUTTGART      CLOUDY    50  39  66 N13       29.98F
MONTICELLO     CLOUDY    52  48  86 NW6       29.97F

$$






USA.gov is the U.S. government's official web portal to all federal, state and local government web resources and services.